Year,Month,Day,Hour,Minute,Value (Times are PST for temperature in C)
2011,07,03,00,00,16.00
2011,07,03,00,01,15.90
2011,07,03,00,02,15.90
2011,07,03,00,03,15.90
2011,07,03,00,04,15.90
2011,07,03,00,05,15.80
2011,07,03,00,06,15.80
2011,07,03,00,07,15.80
2011,07,03,00,08,15.80
2011,07,03,00,09,15.80
2011,07,03,00,10,15.80
2011,07,03,00,11,15.80
2011,07,03,00,12,15.80
2011,07,03,00,13,15.80
2011,07,03,00,14,15.80
2011,07,03,00,15,15.80
2011,07,03,00,16,15.80
2011,07,03,00,17,15.80
2011,07,03,00,18,15.80
2011,07,03,00,19,15.80
2011,07,03,00,20,15.80
2011,07,03,00,21,15.80
2011,07,03,00,22,15.80
2011,07,03,00,23,15.80
2011,07,03,00,24,15.80
2011,07,03,00,25,15.80
2011,07,03,00,26,15.80
2011,07,03,00,27,15.70
2011,07,03,00,28,15.70
2011,07,03,00,29,15.70
2011,07,03,00,30,15.70
2011,07,03,00,31,15.60
2011,07,03,00,32,15.60
2011,07,03,00,33,15.60
2011,07,03,00,34,15.60
2011,07,03,00,35,15.60
2011,07,03,00,36,15.60
2011,07,03,00,37,15.60
2011,07,03,00,38,15.60
2011,07,03,00,39,15.60
2011,07,03,00,40,15.60
2011,07,03,00,41,15.60
2011,07,03,00,42,15.60
2011,07,03,00,43,15.60
2011,07,03,00,44,15.60
2011,07,03,00,45,15.60
2011,07,03,00,46,15.50
2011,07,03,00,47,15.50
2011,07,03,00,48,15.50
2011,07,03,00,49,15.60
2011,07,03,00,50,15.60
2011,07,03,00,51,15.60
2011,07,03,00,52,15.60
2011,07,03,00,53,15.60
2011,07,03,00,54,15.50
2011,07,03,00,55,15.50
2011,07,03,00,56,15.50
2011,07,03,00,57,15.50
2011,07,03,00,58,15.50
2011,07,03,00,59,15.50
2011,07,03,01,00,15.50
2011,07,03,01,01,15.50
2011,07,03,01,02,15.50
2011,07,03,01,03,15.50
2011,07,03,01,04,15.50
2011,07,03,01,05,15.50
2011,07,03,01,06,15.50
2011,07,03,01,07,15.50
2011,07,03,01,08,15.50
2011,07,03,01,09,15.50
2011,07,03,01,10,15.50
2011,07,03,01,11,15.50
2011,07,03,01,12,15.50
2011,07,03,01,13,15.50
2011,07,03,01,14,15.40
2011,07,03,01,15,15.40
2011,07,03,01,16,15.40
2011,07,03,01,17,15.40
2011,07,03,01,18,15.50
2011,07,03,01,19,15.50
2011,07,03,01,20,15.50
2011,07,03,01,21,15.50
2011,07,03,01,22,15.50
2011,07,03,01,23,15.50
2011,07,03,01,24,15.50
2011,07,03,01,25,15.50
2011,07,03,01,26,15.50
2011,07,03,01,27,15.50
2011,07,03,01,28,15.50
2011,07,03,01,29,15.40
2011,07,03,01,30,15.40
2011,07,03,01,31,15.40
2011,07,03,01,32,15.50
2011,07,03,01,33,15.40
2011,07,03,01,34,15.40
2011,07,03,01,35,15.40
2011,07,03,01,36,15.40
2011,07,03,01,37,15.40
2011,07,03,01,38,15.40
2011,07,03,01,39,15.40
2011,07,03,01,40,15.30
2011,07,03,01,41,15.30
2011,07,03,01,42,15.30
2011,07,03,01,43,15.30
2011,07,03,01,44,15.30
2011,07,03,01,45,15.30
2011,07,03,01,46,15.30
2011,07,03,01,47,15.30
2011,07,03,01,48,15.30
2011,07,03,01,49,15.30
2011,07,03,01,50,15.30
2011,07,03,01,51,15.30
2011,07,03,01,52,15.30
2011,07,03,01,53,15.20
2011,07,03,01,54,15.20
2011,07,03,01,55,15.20
2011,07,03,01,56,15.20
2011,07,03,01,57,15.20
2011,07,03,01,58,15.20
2011,07,03,01,59,15.20
2011,07,03,02,00,15.20
2011,07,03,02,01,15.20
2011,07,03,02,02,15.20
2011,07,03,02,03,15.20
2011,07,03,02,04,15.20
2011,07,03,02,05,15.20
2011,07,03,02,06,15.20
2011,07,03,02,07,15.20
2011,07,03,02,08,15.20
2011,07,03,02,09,15.20
2011,07,03,02,10,15.20
2011,07,03,02,11,15.20
2011,07,03,02,12,15.20
2011,07,03,02,13,15.10
2011,07,03,02,14,15.10
2011,07,03,02,15,15.10
2011,07,03,02,16,15.10
2011,07,03,02,17,15.10
2011,07,03,02,18,15.10
2011,07,03,02,19,15.10
2011,07,03,02,20,15.10
2011,07,03,02,21,15.10
2011,07,03,02,22,15.10
2011,07,03,02,23,15.10
2011,07,03,02,24,15.10
2011,07,03,02,25,15.10
2011,07,03,02,26,15.10
2011,07,03,02,27,15.10
2011,07,03,02,28,15.00
2011,07,03,02,29,15.00
2011,07,03,02,30,15.00
2011,07,03,02,31,15.00
2011,07,03,02,32,15.00
2011,07,03,02,33,15.00
2011,07,03,02,34,15.00
2011,07,03,02,35,14.90
2011,07,03,02,36,14.90
2011,07,03,02,37,14.90
2011,07,03,02,38,14.90
2011,07,03,02,39,14.90
2011,07,03,02,40,14.90
2011,07,03,02,41,14.90
2011,07,03,02,42,14.80
2011,07,03,02,43,14.80
2011,07,03,02,44,14.80
2011,07,03,02,45,14.80
2011,07,03,02,46,14.80
2011,07,03,02,47,14.80
2011,07,03,02,48,14.80
2011,07,03,02,49,14.80
2011,07,03,02,50,14.80
2011,07,03,02,51,14.80
2011,07,03,02,52,14.80
2011,07,03,02,53,14.80
2011,07,03,02,54,14.80
2011,07,03,02,55,14.80
2011,07,03,02,56,14.80
2011,07,03,02,57,14.80
2011,07,03,02,58,14.80
2011,07,03,02,59,14.80
2011,07,03,03,00,14.80
2011,07,03,03,01,14.80
2011,07,03,03,02,14.80
2011,07,03,03,03,14.80
2011,07,03,03,04,14.80
2011,07,03,03,05,14.90
2011,07,03,03,06,14.90
2011,07,03,03,07,14.90
2011,07,03,03,08,14.90
2011,07,03,03,09,14.90
2011,07,03,03,10,14.90
2011,07,03,03,11,14.90
2011,07,03,03,12,14.90
2011,07,03,03,13,14.90
2011,07,03,03,14,14.90
2011,07,03,03,15,14.90
2011,07,03,03,16,14.90
2011,07,03,03,17,14.90
2011,07,03,03,18,14.90
2011,07,03,03,19,14.90
2011,07,03,03,20,14.90
2011,07,03,03,21,14.90
2011,07,03,03,22,14.90
2011,07,03,03,23,14.80
2011,07,03,03,24,14.80
2011,07,03,03,25,14.80
2011,07,03,03,26,14.80
2011,07,03,03,27,14.80
2011,07,03,03,28,14.80
2011,07,03,03,29,14.80
2011,07,03,03,30,14.80
2011,07,03,03,31,14.80
2011,07,03,03,32,14.90
2011,07,03,03,33,14.90
2011,07,03,03,34,14.90
2011,07,03,03,35,14.90
2011,07,03,03,36,14.90
2011,07,03,03,37,14.90
2011,07,03,03,38,14.90
2011,07,03,03,39,14.90
2011,07,03,03,40,14.90
2011,07,03,03,41,14.90
2011,07,03,03,42,14.90
2011,07,03,03,43,14.90
2011,07,03,03,44,15.00
2011,07,03,03,45,15.00
2011,07,03,03,46,15.00
2011,07,03,03,47,15.00
2011,07,03,03,48,15.00
2011,07,03,03,49,15.00
2011,07,03,03,50,15.00
2011,07,03,03,51,15.00
2011,07,03,03,52,15.10
2011,07,03,03,53,15.10
2011,07,03,03,54,15.10
2011,07,03,03,55,15.10
2011,07,03,03,56,15.10
2011,07,03,03,57,15.10
2011,07,03,03,58,15.10
2011,07,03,03,59,15.10
2011,07,03,04,00,15.10
2011,07,03,04,01,15.10
2011,07,03,04,02,15.20
2011,07,03,04,03,15.20
2011,07,03,04,04,15.20
2011,07,03,04,05,15.20
2011,07,03,04,06,15.20
2011,07,03,04,07,15.20
2011,07,03,04,08,15.20
2011,07,03,04,09,15.20
2011,07,03,04,10,15.20
2011,07,03,04,11,15.20
2011,07,03,04,12,15.30
2011,07,03,04,13,15.30
2011,07,03,04,14,15.30
2011,07,03,04,15,15.30
2011,07,03,04,16,15.30
2011,07,03,04,17,15.30
2011,07,03,04,18,15.30
2011,07,03,04,19,15.30
2011,07,03,04,20,15.30
2011,07,03,04,21,15.30
2011,07,03,04,22,15.30
2011,07,03,04,23,15.30
2011,07,03,04,24,15.30
2011,07,03,04,25,15.30
2011,07,03,04,26,15.30
2011,07,03,04,27,15.30
2011,07,03,04,28,15.30
2011,07,03,04,29,15.30
2011,07,03,04,30,15.30
2011,07,03,04,31,15.30
2011,07,03,04,32,15.30
2011,07,03,04,33,15.30
2011,07,03,04,34,15.30
2011,07,03,04,35,15.30
2011,07,03,04,36,15.30
2011,07,03,04,37,15.30
2011,07,03,04,38,15.30
2011,07,03,04,39,15.30
2011,07,03,04,40,15.30
2011,07,03,04,41,15.30
2011,07,03,04,42,15.30
2011,07,03,04,43,15.30
2011,07,03,04,44,15.30
2011,07,03,04,45,15.30
2011,07,03,04,46,15.20
2011,07,03,04,47,15.20
2011,07,03,04,48,15.20
2011,07,03,04,49,15.20
2011,07,03,04,50,15.20
2011,07,03,04,51,15.20
2011,07,03,04,52,15.20
2011,07,03,04,53,15.10
2011,07,03,04,54,15.10
2011,07,03,04,55,15.10
2011,07,03,04,56,15.10
2011,07,03,04,57,15.10
2011,07,03,04,58,15.10
2011,07,03,04,59,15.10
2011,07,03,05,00,15.00
2011,07,03,05,01,15.00
2011,07,03,05,02,15.00
2011,07,03,05,03,15.00
2011,07,03,05,04,15.00
2011,07,03,05,05,15.00
2011,07,03,05,06,15.00
2011,07,03,05,07,15.00
2011,07,03,05,08,15.00
2011,07,03,05,09,15.00
2011,07,03,05,10,14.90
2011,07,03,05,11,14.90
2011,07,03,05,12,14.90
2011,07,03,05,13,14.90
2011,07,03,05,14,14.90
2011,07,03,05,15,14.90
2011,07,03,05,16,14.90
2011,07,03,05,17,14.90
2011,07,03,05,18,14.90
2011,07,03,05,19,14.90
2011,07,03,05,20,14.90
2011,07,03,05,21,14.90
2011,07,03,05,22,14.90
2011,07,03,05,23,14.90
2011,07,03,05,24,14.90
2011,07,03,05,25,14.90
2011,07,03,05,26,14.90
2011,07,03,05,27,14.90
2011,07,03,05,28,14.90
2011,07,03,05,29,14.90
2011,07,03,05,30,14.90
2011,07,03,05,31,14.90
2011,07,03,05,32,14.90
2011,07,03,05,33,14.90
2011,07,03,05,34,14.90
2011,07,03,05,35,14.90
2011,07,03,05,36,14.90
2011,07,03,05,37,14.90
2011,07,03,05,38,14.90
2011,07,03,05,39,14.90
2011,07,03,05,40,14.90
2011,07,03,05,41,14.80
2011,07,03,05,42,14.80
2011,07,03,05,43,14.80
2011,07,03,05,44,14.80
2011,07,03,05,45,14.80
2011,07,03,05,46,14.80
2011,07,03,05,47,14.80
2011,07,03,05,48,14.80
2011,07,03,05,49,14.80
2011,07,03,05,50,14.80
2011,07,03,05,51,14.80
2011,07,03,05,52,14.80
2011,07,03,05,53,14.80
2011,07,03,05,54,14.80
2011,07,03,05,55,14.80
2011,07,03,05,56,14.80
2011,07,03,05,57,14.80
2011,07,03,05,58,14.80
2011,07,03,05,59,14.70
2011,07,03,06,00,14.70
2011,07,03,06,01,14.70
2011,07,03,06,02,14.70
2011,07,03,06,03,14.60
2011,07,03,06,04,14.60
2011,07,03,06,05,14.60
2011,07,03,06,06,14.60
2011,07,03,06,07,14.60
2011,07,03,06,08,14.60
2011,07,03,06,09,14.50
2011,07,03,06,10,14.50
2011,07,03,06,11,14.50
2011,07,03,06,12,14.50
2011,07,03,06,13,14.50
2011,07,03,06,14,14.50
2011,07,03,06,15,14.40
2011,07,03,06,16,14.40
2011,07,03,06,17,14.40
2011,07,03,06,18,14.40
2011,07,03,06,19,14.30
2011,07,03,06,20,14.30
2011,07,03,06,21,14.30
2011,07,03,06,22,14.30
2011,07,03,06,23,14.20
2011,07,03,06,24,14.20
2011,07,03,06,25,14.20
2011,07,03,06,26,14.20
2011,07,03,06,27,14.20
2011,07,03,06,28,14.20
2011,07,03,06,29,14.20
2011,07,03,06,30,14.20
2011,07,03,06,31,14.20
2011,07,03,06,32,14.20
2011,07,03,06,33,14.20
2011,07,03,06,34,14.20
2011,07,03,06,35,14.20
2011,07,03,06,36,14.20
2011,07,03,06,37,14.20
2011,07,03,06,38,14.20
2011,07,03,06,39,14.20
2011,07,03,06,40,14.20
2011,07,03,06,41,14.20
2011,07,03,06,42,14.20
2011,07,03,06,43,14.20
2011,07,03,06,44,14.20
2011,07,03,06,45,14.20
2011,07,03,06,46,14.20
2011,07,03,06,47,14.20
2011,07,03,06,48,14.20
2011,07,03,06,49,14.20
2011,07,03,06,50,14.20
2011,07,03,06,51,14.20
2011,07,03,06,52,14.20
2011,07,03,06,53,14.20
2011,07,03,06,54,14.30
2011,07,03,06,55,14.30
2011,07,03,06,56,14.30
2011,07,03,06,57,14.30
2011,07,03,06,58,14.30
2011,07,03,06,59,14.30
2011,07,03,07,00,14.30
2011,07,03,07,01,14.30
2011,07,03,07,02,14.30
2011,07,03,07,03,14.30
2011,07,03,07,04,14.30
2011,07,03,07,05,14.30
2011,07,03,07,06,14.30
2011,07,03,07,07,14.30
2011,07,03,07,08,14.30
2011,07,03,07,09,14.30
2011,07,03,07,10,14.30
2011,07,03,07,11,14.30
2011,07,03,07,12,14.30
2011,07,03,07,13,14.30
2011,07,03,07,14,14.30
2011,07,03,07,15,14.20
2011,07,03,07,16,14.20
2011,07,03,07,17,14.20
2011,07,03,07,18,14.20
2011,07,03,07,19,14.20
2011,07,03,07,20,14.20
2011,07,03,07,21,14.20
2011,07,03,07,22,14.20
2011,07,03,07,23,14.20
2011,07,03,07,24,14.20
2011,07,03,07,25,14.20
2011,07,03,07,26,14.20
2011,07,03,07,27,14.20
2011,07,03,07,28,14.20
2011,07,03,07,29,14.20
2011,07,03,07,30,14.20
2011,07,03,07,31,14.20
2011,07,03,07,32,14.20
2011,07,03,07,33,14.20
2011,07,03,07,34,14.20
2011,07,03,07,35,14.20
2011,07,03,07,36,14.30
2011,07,03,07,37,14.40
2011,07,03,07,38,14.50
2011,07,03,07,39,14.50
2011,07,03,07,40,14.60
2011,07,03,07,41,14.60
2011,07,03,07,42,14.70
2011,07,03,07,43,14.80
2011,07,03,07,44,14.80
2011,07,03,07,45,14.80
2011,07,03,07,46,14.90
2011,07,03,07,47,14.90
2011,07,03,07,48,15.00
2011,07,03,07,49,15.10
2011,07,03,07,50,15.10
2011,07,03,07,51,15.20
2011,07,03,07,52,15.20
2011,07,03,07,53,15.30
2011,07,03,07,54,15.30
2011,07,03,07,55,15.30
2011,07,03,07,56,15.30
2011,07,03,07,57,15.40
2011,07,03,07,58,15.50
2011,07,03,07,59,15.50
2011,07,03,08,00,15.50
2011,07,03,08,01,15.50
2011,07,03,08,02,15.50
2011,07,03,08,03,15.50
2011,07,03,08,04,15.50
2011,07,03,08,05,15.40
2011,07,03,08,06,15.40
2011,07,03,08,07,15.40
2011,07,03,08,08,15.40
2011,07,03,08,09,15.40
2011,07,03,08,10,15.40
2011,07,03,08,11,15.40
2011,07,03,08,12,15.30
2011,07,03,08,13,15.30
2011,07,03,08,14,15.30
2011,07,03,08,15,15.40
2011,07,03,08,16,15.50
2011,07,03,08,17,15.50
2011,07,03,08,18,15.60
2011,07,03,08,19,15.60
2011,07,03,08,20,15.70
2011,07,03,08,21,15.70
2011,07,03,08,22,15.70
2011,07,03,08,23,15.80
2011,07,03,08,24,15.80
2011,07,03,08,25,15.80
2011,07,03,08,26,15.80
2011,07,03,08,27,15.80
2011,07,03,08,28,15.80
2011,07,03,08,29,15.80
2011,07,03,08,30,15.90
2011,07,03,08,31,15.90
2011,07,03,08,32,16.00
2011,07,03,08,33,16.10
2011,07,03,08,34,16.20
2011,07,03,08,35,16.20
2011,07,03,08,36,16.30
2011,07,03,08,37,16.30
2011,07,03,08,38,16.40
2011,07,03,08,39,16.40
2011,07,03,08,40,16.40
2011,07,03,08,41,16.40
2011,07,03,08,42,16.40
2011,07,03,08,43,16.30
2011,07,03,08,44,16.30
2011,07,03,08,45,16.20
2011,07,03,08,46,16.20
2011,07,03,08,47,16.30
2011,07,03,08,48,16.30
2011,07,03,08,49,16.40
2011,07,03,08,50,16.40
2011,07,03,08,51,16.40
2011,07,03,08,52,16.40
2011,07,03,08,53,16.30
2011,07,03,08,54,16.20
2011,07,03,08,55,16.10
2011,07,03,08,56,16.10
2011,07,03,08,57,16.10
2011,07,03,08,58,16.10
2011,07,03,08,59,16.10
2011,07,03,09,00,16.10
2011,07,03,09,01,16.10
2011,07,03,09,02,16.20
2011,07,03,09,03,16.20
2011,07,03,09,04,16.20
2011,07,03,09,05,16.30
2011,07,03,09,06,16.30
2011,07,03,09,07,16.30
2011,07,03,09,08,16.30
2011,07,03,09,09,16.20
2011,07,03,09,10,16.20
2011,07,03,09,11,16.20
2011,07,03,09,12,16.20
2011,07,03,09,13,16.10
2011,07,03,09,14,16.10
2011,07,03,09,15,16.20
2011,07,03,09,16,16.20
2011,07,03,09,17,16.10
2011,07,03,09,18,16.10
2011,07,03,09,19,16.10
2011,07,03,09,20,16.10
2011,07,03,09,21,16.10
2011,07,03,09,22,16.20
2011,07,03,09,23,16.20
2011,07,03,09,24,16.30
2011,07,03,09,25,16.40
2011,07,03,09,26,16.50
2011,07,03,09,27,16.60
2011,07,03,09,28,16.50
2011,07,03,09,29,16.40
2011,07,03,09,30,16.40
2011,07,03,09,31,16.30
2011,07,03,09,32,16.20
2011,07,03,09,33,16.20
2011,07,03,09,34,16.30
2011,07,03,09,35,16.30
2011,07,03,09,36,16.20
2011,07,03,09,37,16.30
2011,07,03,09,38,16.30
2011,07,03,09,39,16.40
2011,07,03,09,40,16.50
2011,07,03,09,41,16.60
2011,07,03,09,42,16.60
2011,07,03,09,43,16.50
2011,07,03,09,44,16.40
2011,07,03,09,45,16.40
2011,07,03,09,46,16.40
2011,07,03,09,47,16.40
2011,07,03,09,48,16.40
2011,07,03,09,49,16.40
2011,07,03,09,50,16.30
2011,07,03,09,51,16.40
2011,07,03,09,52,16.40
2011,07,03,09,53,16.50
2011,07,03,09,54,16.60
2011,07,03,09,55,16.70
2011,07,03,09,56,16.90
2011,07,03,09,57,16.90
2011,07,03,09,58,17.00
2011,07,03,09,59,17.00
2011,07,03,10,00,17.00
2011,07,03,10,01,17.10
2011,07,03,10,02,17.20
2011,07,03,10,03,17.20
2011,07,03,10,04,17.20
2011,07,03,10,05,17.20
2011,07,03,10,06,17.30
2011,07,03,10,07,17.30
2011,07,03,10,08,17.30
2011,07,03,10,09,17.30
2011,07,03,10,10,17.30
2011,07,03,10,11,17.50
2011,07,03,10,12,17.60
2011,07,03,10,13,17.60
2011,07,03,10,14,17.60
2011,07,03,10,15,17.70
2011,07,03,10,16,17.60
2011,07,03,10,17,17.60
2011,07,03,10,18,17.60
2011,07,03,10,19,17.60
2011,07,03,10,20,17.60
2011,07,03,10,21,17.60
2011,07,03,10,22,17.70
2011,07,03,10,23,17.70
2011,07,03,10,24,17.80
2011,07,03,10,25,17.80
2011,07,03,10,26,17.80
2011,07,03,10,27,17.80
2011,07,03,10,28,17.80
2011,07,03,10,29,17.80
2011,07,03,10,30,17.80
2011,07,03,10,31,17.90
2011,07,03,10,32,17.90
2011,07,03,10,33,17.90
2011,07,03,10,34,17.90
2011,07,03,10,35,17.90
2011,07,03,10,36,17.90
2011,07,03,10,37,17.90
2011,07,03,10,38,18.10
2011,07,03,10,39,18.10
2011,07,03,10,40,18.20
2011,07,03,10,41,18.20
2011,07,03,10,42,18.20
2011,07,03,10,43,18.20
2011,07,03,10,44,18.20
2011,07,03,10,45,18.10
2011,07,03,10,46,18.10
2011,07,03,10,47,18.20
2011,07,03,10,48,18.20
2011,07,03,10,49,18.20
2011,07,03,10,50,18.20
2011,07,03,10,51,18.20
2011,07,03,10,52,18.20
2011,07,03,10,53,18.20
2011,07,03,10,54,18.20
2011,07,03,10,55,18.20
2011,07,03,10,56,18.20
2011,07,03,10,57,18.20
2011,07,03,10,58,18.20
2011,07,03,10,59,18.20
2011,07,03,11,00,18.20
2011,07,03,11,01,18.20
2011,07,03,11,02,18.20
2011,07,03,11,03,18.30
2011,07,03,11,04,18.30
2011,07,03,11,05,18.30
2011,07,03,11,06,18.30
2011,07,03,11,07,18.40
2011,07,03,11,08,18.50
2011,07,03,11,09,18.50
2011,07,03,11,10,18.50
2011,07,03,11,11,18.60
2011,07,03,11,12,18.60
2011,07,03,11,13,18.60
2011,07,03,11,14,18.60
2011,07,03,11,15,18.50
2011,07,03,11,16,18.40
2011,07,03,11,17,18.30
2011,07,03,11,18,18.30
2011,07,03,11,19,18.20
2011,07,03,11,20,18.20
2011,07,03,11,21,18.30
2011,07,03,11,22,18.30
2011,07,03,11,23,18.30
2011,07,03,11,24,18.30
2011,07,03,11,25,18.20
2011,07,03,11,26,18.20
2011,07,03,11,27,18.10
2011,07,03,11,28,18.20
2011,07,03,11,29,18.20
2011,07,03,11,30,18.20
2011,07,03,11,31,18.20
2011,07,03,11,32,18.10
2011,07,03,11,33,18.10
2011,07,03,11,34,18.10
2011,07,03,11,35,18.10
2011,07,03,11,36,18.10
2011,07,03,11,37,18.10
2011,07,03,11,38,18.20
2011,07,03,11,39,18.40
2011,07,03,11,40,18.50
2011,07,03,11,41,18.50
2011,07,03,11,42,18.60
2011,07,03,11,43,18.70
2011,07,03,11,44,18.80
2011,07,03,11,45,18.80
2011,07,03,11,46,18.70
2011,07,03,11,47,18.60
2011,07,03,11,48,18.50
2011,07,03,11,49,18.50
2011,07,03,11,50,18.50
2011,07,03,11,51,18.50
2011,07,03,11,52,18.50
2011,07,03,11,53,18.50
2011,07,03,11,54,18.50
2011,07,03,11,55,18.60
2011,07,03,11,56,18.60
2011,07,03,11,57,18.70
2011,07,03,11,58,18.90
2011,07,03,11,59,18.90
2011,07,03,12,00,18.90
2011,07,03,12,01,18.90
2011,07,03,12,02,18.90
2011,07,03,12,03,18.90
2011,07,03,12,04,18.90
2011,07,03,12,05,18.90
2011,07,03,12,06,18.90
2011,07,03,12,07,19.10
2011,07,03,12,08,19.10
2011,07,03,12,09,19.10
2011,07,03,12,10,19.10
2011,07,03,12,11,19.00
2011,07,03,12,12,18.90
2011,07,03,12,13,18.90
2011,07,03,12,14,18.80
2011,07,03,12,15,18.60
2011,07,03,12,16,18.60
2011,07,03,12,17,18.60
2011,07,03,12,18,18.70
2011,07,03,12,19,18.70
2011,07,03,12,20,18.70
2011,07,03,12,21,18.70
2011,07,03,12,22,18.70
2011,07,03,12,23,18.70
2011,07,03,12,24,18.70
2011,07,03,12,25,18.70
2011,07,03,12,26,18.70
2011,07,03,12,27,18.70
2011,07,03,12,28,18.60
2011,07,03,12,29,18.50
2011,07,03,12,30,18.60
2011,07,03,12,31,18.60
2011,07,03,12,32,18.60
2011,07,03,12,33,18.60
2011,07,03,12,34,18.70
2011,07,03,12,35,18.70
2011,07,03,12,36,18.80
2011,07,03,12,37,18.80
2011,07,03,12,38,18.90
2011,07,03,12,39,18.90
2011,07,03,12,40,19.00
2011,07,03,12,41,19.10
2011,07,03,12,42,19.10
2011,07,03,12,43,19.10
2011,07,03,12,44,19.10
2011,07,03,12,45,19.10
2011,07,03,12,46,19.10
2011,07,03,12,47,19.00
2011,07,03,12,48,19.00
2011,07,03,12,49,19.10
2011,07,03,12,50,19.10
2011,07,03,12,51,19.20
2011,07,03,12,52,19.20
2011,07,03,12,53,19.30
2011,07,03,12,54,19.40
2011,07,03,12,55,19.40
2011,07,03,12,56,19.40
2011,07,03,12,57,19.40
2011,07,03,12,58,19.40
2011,07,03,12,59,19.40
2011,07,03,13,00,19.30
2011,07,03,13,01,19.40
2011,07,03,13,02,19.50
2011,07,03,13,03,19.60
2011,07,03,13,04,19.60
2011,07,03,13,05,19.70
2011,07,03,13,06,19.80
2011,07,03,13,07,19.80
2011,07,03,13,08,19.90
2011,07,03,13,09,20.00
2011,07,03,13,10,20.10
2011,07,03,13,11,20.10
2011,07,03,13,12,20.10
2011,07,03,13,13,20.10
2011,07,03,13,14,20.10
2011,07,03,13,15,20.10
2011,07,03,13,16,20.10
2011,07,03,13,17,20.10
2011,07,03,13,18,20.10
2011,07,03,13,19,20.10
2011,07,03,13,20,20.00
2011,07,03,13,21,20.00
2011,07,03,13,22,19.90
2011,07,03,13,23,19.80
2011,07,03,13,24,19.80
2011,07,03,13,25,19.80
2011,07,03,13,26,19.80
2011,07,03,13,27,19.70
2011,07,03,13,28,19.60
2011,07,03,13,29,19.50
2011,07,03,13,30,19.40
2011,07,03,13,31,19.50
2011,07,03,13,32,19.60
2011,07,03,13,33,19.60
2011,07,03,13,34,19.60
2011,07,03,13,35,19.50
2011,07,03,13,36,19.40
2011,07,03,13,37,19.40
2011,07,03,13,38,19.50
2011,07,03,13,39,19.60
2011,07,03,13,40,19.80
2011,07,03,13,41,19.90
2011,07,03,13,42,19.90
2011,07,03,13,43,20.00
2011,07,03,13,44,20.10
2011,07,03,13,45,19.90
2011,07,03,13,46,19.90
2011,07,03,13,47,19.90
2011,07,03,13,48,19.80
2011,07,03,13,49,19.80
2011,07,03,13,50,19.80
2011,07,03,13,51,19.80
2011,07,03,13,52,19.80
2011,07,03,13,53,19.80
2011,07,03,13,54,19.80
2011,07,03,13,55,19.90
2011,07,03,13,56,20.00
2011,07,03,13,57,20.10
2011,07,03,13,58,20.10
2011,07,03,13,59,20.00
2011,07,03,14,00,19.80
2011,07,03,14,01,19.70
2011,07,03,14,02,19.60
2011,07,03,14,03,19.60
2011,07,03,14,04,19.60
2011,07,03,14,05,19.60
2011,07,03,14,06,19.50
2011,07,03,14,07,19.50
2011,07,03,14,08,19.50
2011,07,03,14,09,19.50
2011,07,03,14,10,19.50
2011,07,03,14,11,19.40
2011,07,03,14,12,19.30
2011,07,03,14,13,19.30
2011,07,03,14,14,19.30
2011,07,03,14,15,19.30
2011,07,03,14,16,19.30
2011,07,03,14,17,19.40
2011,07,03,14,18,19.30
2011,07,03,14,19,19.20
2011,07,03,14,20,19.20
2011,07,03,14,21,19.30
2011,07,03,14,22,19.40
2011,07,03,14,23,19.60
2011,07,03,14,24,19.70
2011,07,03,14,25,19.60
2011,07,03,14,26,19.60
2011,07,03,14,27,19.70
2011,07,03,14,28,19.80
2011,07,03,14,29,19.80
2011,07,03,14,30,19.80
2011,07,03,14,31,19.80
2011,07,03,14,32,19.90
2011,07,03,14,33,19.90
2011,07,03,14,34,19.90
2011,07,03,14,35,19.90
2011,07,03,14,36,20.00
2011,07,03,14,37,20.10
2011,07,03,14,38,20.10
2011,07,03,14,39,20.20
2011,07,03,14,40,20.30
2011,07,03,14,41,20.40
2011,07,03,14,42,20.50
2011,07,03,14,43,20.60
2011,07,03,14,44,20.70
2011,07,03,14,45,20.80
2011,07,03,14,46,20.80
2011,07,03,14,47,20.90
2011,07,03,14,48,20.90
2011,07,03,14,49,21.00
2011,07,03,14,50,21.00
2011,07,03,14,51,21.10
2011,07,03,14,52,21.10
2011,07,03,14,53,21.00
2011,07,03,14,54,21.00
2011,07,03,14,55,21.00
2011,07,03,14,56,21.10
2011,07,03,14,57,21.10
2011,07,03,14,58,21.10
2011,07,03,14,59,20.90
2011,07,03,15,00,20.90
2011,07,03,15,01,20.70
2011,07,03,15,02,20.60
2011,07,03,15,03,20.50
2011,07,03,15,04,20.40
2011,07,03,15,05,20.40
2011,07,03,15,06,20.50
2011,07,03,15,07,20.50
2011,07,03,15,08,20.40
2011,07,03,15,09,20.40
2011,07,03,15,10,20.40
2011,07,03,15,11,20.30
2011,07,03,15,12,20.30
2011,07,03,15,13,20.30
2011,07,03,15,14,20.30
2011,07,03,15,15,20.30
2011,07,03,15,16,20.30
2011,07,03,15,17,20.30
2011,07,03,15,18,20.40
2011,07,03,15,19,20.40
2011,07,03,15,20,20.20
2011,07,03,15,21,20.10
2011,07,03,15,22,20.00
2011,07,03,15,23,19.90
2011,07,03,15,24,19.90
2011,07,03,15,25,19.90
2011,07,03,15,26,19.90
2011,07,03,15,27,20.00
2011,07,03,15,28,20.10
2011,07,03,15,29,20.20
2011,07,03,15,30,20.20
2011,07,03,15,31,20.20
2011,07,03,15,32,20.20
2011,07,03,15,33,20.20
2011,07,03,15,34,20.20
2011,07,03,15,35,20.40
2011,07,03,15,36,20.50
2011,07,03,15,37,20.50
2011,07,03,15,38,20.40
2011,07,03,15,39,20.40
2011,07,03,15,40,20.30
2011,07,03,15,41,20.30
2011,07,03,15,42,20.20
2011,07,03,15,43,20.20
2011,07,03,15,44,20.10
2011,07,03,15,45,20.10
2011,07,03,15,46,20.20
2011,07,03,15,47,20.20
2011,07,03,15,48,20.20
2011,07,03,15,49,20.20
2011,07,03,15,50,20.20
2011,07,03,15,51,20.30
2011,07,03,15,52,20.30
2011,07,03,15,53,20.30
2011,07,03,15,54,20.30
2011,07,03,15,55,20.30
2011,07,03,15,56,20.30
2011,07,03,15,57,20.20
2011,07,03,15,58,20.20
2011,07,03,15,59,20.20
2011,07,03,16,00,20.20
2011,07,03,16,01,20.20
2011,07,03,16,02,20.20
2011,07,03,16,03,20.20
2011,07,03,16,04,20.20
2011,07,03,16,05,20.30
2011,07,03,16,06,20.30
2011,07,03,16,07,20.30
2011,07,03,16,08,20.30
2011,07,03,16,09,20.30
2011,07,03,16,10,20.40
2011,07,03,16,11,20.30
2011,07,03,16,12,20.30
2011,07,03,16,13,20.40
2011,07,03,16,14,20.50
2011,07,03,16,15,20.60
2011,07,03,16,16,20.70
2011,07,03,16,17,20.70
2011,07,03,16,18,20.80
2011,07,03,16,19,20.90
2011,07,03,16,20,20.90
2011,07,03,16,21,21.00
2011,07,03,16,22,21.00
2011,07,03,16,23,20.80
2011,07,03,16,24,20.60
2011,07,03,16,25,20.50
2011,07,03,16,26,20.40
2011,07,03,16,27,20.30
2011,07,03,16,28,20.30
2011,07,03,16,29,20.30
2011,07,03,16,30,20.30
2011,07,03,16,31,20.40
2011,07,03,16,32,20.50
2011,07,03,16,33,20.60
2011,07,03,16,34,20.70
2011,07,03,16,35,20.80
2011,07,03,16,36,20.80
2011,07,03,16,37,20.90
2011,07,03,16,38,20.90
2011,07,03,16,39,20.90
2011,07,03,16,40,21.00
2011,07,03,16,41,21.00
2011,07,03,16,42,21.00
2011,07,03,16,43,20.90
2011,07,03,16,44,20.70
2011,07,03,16,45,20.60
2011,07,03,16,46,20.50
2011,07,03,16,47,20.50
2011,07,03,16,48,20.60
2011,07,03,16,49,20.80
2011,07,03,16,50,20.90
2011,07,03,16,51,20.90
2011,07,03,16,52,20.90
2011,07,03,16,53,20.90
2011,07,03,16,54,21.00
2011,07,03,16,55,21.00
2011,07,03,16,56,20.90
2011,07,03,16,57,20.90
2011,07,03,16,58,20.80
2011,07,03,16,59,20.80
2011,07,03,17,00,20.90
2011,07,03,17,01,21.00
2011,07,03,17,02,21.00
2011,07,03,17,03,20.80
2011,07,03,17,04,20.80
2011,07,03,17,05,20.80
2011,07,03,17,06,20.80
2011,07,03,17,07,20.70
2011,07,03,17,08,20.70
2011,07,03,17,09,20.70
2011,07,03,17,10,20.80
2011,07,03,17,11,20.90
2011,07,03,17,12,20.90
2011,07,03,17,13,21.00
2011,07,03,17,14,21.00
2011,07,03,17,15,21.00
2011,07,03,17,16,21.00
2011,07,03,17,17,21.00
2011,07,03,17,18,21.00
2011,07,03,17,19,21.00